Showing default

WREN-1, 60478

Orbit data source: Space-Track

WREN-1, 60478 is a payload satellite owned by C3S (HU) in SSO that was launched on Fri, 16 Aug 2024 UTC via an FALCON 9 launch vehicle from the Air Force Western Test Range (AFWTR). Payload-class satellites include a variety of spacecraft equipped with specific instruments for various scientific and technological missions. These include communications satellites like Starlink; space stations such as the ISS; scientific satellites like the Hubble; Earth observation satellites from companies like Planet Labs, Umbra, and HawkEye 360; GPS; miniature CubeSats for education and research; and military/defense satellites.

Loading next visibility...
Identifier
60478, 2024-149L
Orbit
SSO
Country
Flag of HUHU / HUN
Related business
Manufacturer
C3S
Mission
Operational Commercial Technology
Bus & Motor
CUBESAT 6U, Unknown motor
Mass
~10 kg wet, ~10 kg dry
Launch date (UTC)
2024-08-16 (2 years ago)
Launch vehicle
FALCON 9
Launch site
Air Force Western Test Range (AFWTR)
Object type
Payload
Rocket body
Debris
Shape & HBR
Box + 2 Pan, 0.4 m
Radar Cross Section
0.115 m², Medium (>0.1 m² and < 1m²)

Expand to show TLE details & history
Last TLE update: 12 hours ago

TLE from 12 hours ago
0 WREN-1
1 60478U 24149L   26219.77108392  .00012525  00000-0  28089-3 0  9997
2 60478  97.3742 304.4927 0005340  86.2037 273.9821 15.43533573110278
Epoch: 2026-08-07T18:30Z
TLE epoch observation values (Epoch: 2026-08-07T18:30:21.650Z)
Latitude
-0.00008°
Longitude
70.6105°
Altitude
438.563 km
Speed
7.649 km/s
True Right ascension
20h 17m 58s
True Declination
0° 00' 00"
Sunlit
Object was in full shadow at epoch
Visualization orbit readout
Latitude
Unknown
Longitude
Unknown
Altitude
Unknown
Speed
Unknown
Apparent Right ascension
Unknown
Apparent Declination
Unknown
Sunlit
N/A
Visualization observer readout
Local Sidereal Time
20:44:46
Azimuth
Unknown
Elevation
Unknown
Doppler factor
Unknown
Orbital elements
Apogee altitude
436.26 km
Perigee altitude
428.986 km
Semi-major axis
6,810.76 km
Eccentricity
0.00053
Inclination
97.3742°
RAAN
304.4927°
Arg. of periapsis
86.2037°
True anomaly
273.92105°
Mean anomaly
273.9821°
Eccentric anomaly
273.95158°
Mean motion
3.86144 °/min
Orbital period
93.23 mins
BSTAR
0.00028089
Loading maneuver chart data...
Computing Atmospheric mass density...
Loading historical data...
Loading historical data...
Loading historical data...
Loading historical data...
Loading historical data...
Loading historical data...
Loading historical data...

Documentation

Showing up to 5 results
|